Location: Kielce
(50.8833°N, 20.6167°E)
Time: 07:30:55
(UTC+02:00)

Altair - All Passes

Search period start: 14 April 2021 00:00
Search period end: 24 April 2021 00:00
Orbit: 1501 x 1683 km, 47.2° (Epoch: 12 April)

Date Brightness Start Highest point End Pass type
(mag) Time Alt. Az. Time Alt. Az. Time Alt. Az.
14 Apr - 05:34:38 10° SE 05:37:46 12° SE 05:40:53 10° ESE daylight
14 Apr - 07:31:41 10° SSW 07:40:20 38° SE 07:48:42 10° E daylight
14 Apr - 09:34:36 10° WSW 09:44:05 66° SSE 09:53:16 10° E daylight
14 Apr - 11:39:01 10° W 11:48:24 69° S 11:57:30 10° ESE daylight
14 Apr - 13:43:41 10° W 13:52:12 42° SSW 14:00:33 10° SSE daylight
14 Apr - 15:50:32 10° W 15:54:46 14° SW 15:58:59 10° SSW daylight
15 Apr - 05:11:14 10° SE 05:12:48 10° ESE 05:14:21 10° ESE visible
15 Apr - 07:06:44 10° SSW 07:15:15 36° SE 07:23:31 10° E daylight
15 Apr - 09:09:26 10° WSW 09:18:57 65° SSE 09:28:07 10° E daylight
15 Apr - 11:13:50 10° W 11:23:15 70° S 11:32:23 10° ESE daylight
15 Apr - 13:18:30 10° W 13:27:07 44° SSW 13:35:35 10° SE daylight
15 Apr - 15:24:53 10° W 15:29:47 16° SW 15:34:41 10° SSW daylight
16 Apr - 06:41:47 10° SSW 06:50:11 34° SE 06:58:18 10° E daylight
16 Apr - 08:44:17 10° WSW 08:53:48 63° SSE 09:02:59 10° E daylight
16 Apr - 10:48:38 10° W 10:58:06 71° S 11:07:16 10° ESE daylight
16 Apr - 12:53:17 10° W 13:02:03 46° SSW 13:10:36 10° SE daylight
16 Apr - 14:59:21 10° W 15:04:49 17° SW 15:10:14 10° SSW daylight
17 Apr - 06:16:53 10° SSW 06:25:07 32° SE 06:33:06 10° E daylight
17 Apr - 08:19:09 10° WSW 08:28:40 62° SSE 08:37:50 10° E daylight
17 Apr - 10:23:26 10° W 10:32:57 72° S 10:42:09 10° ESE daylight
17 Apr - 12:28:05 10° W 12:36:57 49° SSW 12:45:37 10° SE daylight
17 Apr - 14:33:53 10° W 14:39:49 19° SW 14:45:43 10° S daylight
18 Apr - 05:52:01 10° SSW 06:00:03 30° SE 06:07:51 10° E daylight
18 Apr - 07:54:01 10° SW 08:03:32 60° SSE 08:12:42 10° E daylight
18 Apr - 09:58:14 10° W 10:07:48 72° S 10:17:01 10° ESE daylight
18 Apr - 12:02:52 10° W 12:11:52 51° SSW 12:20:36 10° SE daylight
18 Apr - 14:08:28 10° W 14:14:49 21° SW 14:21:07 10° S daylight
19 Apr - 05:27:10 10° S 05:34:59 28° SE 05:42:36 10° E daylight
19 Apr - 07:28:53 10° SW 07:38:23 58° SSE 07:47:33 10° E daylight
19 Apr - 09:33:02 10° W 09:42:38 72° S 09:51:54 10° E daylight
19 Apr - 11:37:40 10° W 11:46:46 53° SSW 11:55:35 10° SE daylight
19 Apr - 13:43:06 10° W 13:49:49 23° SW 13:56:28 10° S daylight
20 Apr - 05:02:21 10° S 05:09:56 26° SE 05:17:20 10° E daylight
20 Apr - 07:03:46 10° SW 07:13:16 56° SSE 07:22:24 10° E daylight
20 Apr - 09:07:50 10° W 09:17:29 73° S 09:26:46 10° E daylight
20 Apr - 11:12:28 10° W 11:21:39 56° SSW 11:30:33 10° SE daylight
20 Apr - 13:17:45 10° W 13:24:48 25° SW 13:31:46 10° S daylight
21 Apr - 04:37:34 10° S 04:44:54 24° SE 04:52:01 10° E visible
21 Apr - 06:38:40 10° SW 06:48:08 54° SSE 06:57:15 10° E daylight
21 Apr - 08:42:38 10° W 08:52:19 73° S 09:01:38 10° E daylight
21 Apr - 10:47:16 10° W 10:56:33 58° SSW 11:05:30 10° SE daylight
21 Apr - 12:52:26 10° W 12:59:47 27° SW 13:07:01 10° S daylight
22 Apr - 04:12:51 10° S 04:19:51 22° SE 04:26:41 10° E visible
22 Apr - 06:13:35 10° SW 06:23:00 51° SSE 06:32:06 10° E daylight
22 Apr - 08:17:26 10° WSW 08:27:09 72° S 08:36:29 10° E daylight
22 Apr - 10:22:04 10° W 10:31:25 60° SSW 10:40:27 10° SE daylight
22 Apr - 12:27:08 10° W 12:34:46 29° SW 12:42:14 10° SSE daylight
23 Apr - 03:48:10 10° S 03:54:49 20° SE 04:01:19 10° E visible
23 Apr - 05:48:30 10° SW 05:57:53 49° SSE 06:06:56 10° E daylight
23 Apr - 07:52:15 10° WSW 08:01:59 72° S 08:11:21 10° E daylight
23 Apr - 09:56:51 10° W 10:06:18 62° SSW 10:15:23 10° ESE daylight
23 Apr - 12:01:50 10° W 12:09:43 31° SW 12:17:26 10° SSE daylight
